Regional Weather Roundup
Issued by NWS State College, PA

Home | Current Version | Previous Version | Text Only | Print | Product List | Glossary On
Versions: 1 2 3 4 5 6 7 8 9 10 11 12 13 14 15 16 17 18 19 20 21 22 23 24 25 26 27 28 29 30 31 32 33 34 35 36 37 38 39 40 41 42 43 44 45 46 47 48 49 50
000
ASUS41 KCTP 270410
RWRCTP

REGIONAL WEATHER ROUNDUP
NATIONAL WEATHER SERVICE STATE COLLEGE PA
1200 AM EDT TUE SEP 27 2016

Note: "fair" indicates few or no clouds below 12,000 feet with no
significant weather and/or obstructions to visibility.

* = STATION THAT DOES NOT REPORT PRECIPITATION /E.G. RAIN...SNOW...ETC/
    THUNDER OR FOG.

PAZ002>004-007>009-013>016-020>023-029>032-270500-
WESTERN PENNSYLVANIA

CITY           SKY/WX    TMP DP  RH WIND       PRES   REMARKS
ERIE           MOCLDY    60  52  74 S9        29.93S
MEADVILLE      CLEAR     54  51  90 SW8       29.97F
FRANKLIN*        N/A     54  48  82 SW5       29.99S
NEW CASTLE     FAIR      55  54  96 SW5       30.00S
BEAVER COUNTY  NOT AVBL
BUTLER*        CLEAR     54  52  94 SW3       30.03S
PITTSBURGH INT MOCLDY    57  56  96 W5        30.01R
PITTSBURGH     PTCLDY    58  53  84 W6        30.00S
INDIANA*       CLOUDY    61  57  88 VRB8      30.02S
LATROBE        PTCLDY    61  57  88 W8        30.01S
WASHINGTON CO* PTCLDY    54  50  87 CALM      30.03S
$$

PAZ004>006-010>012-017>019-024>028-033>037-041-042-045-046-049>053-270500-
CENTRAL PENNSYLVANIA

CITY           SKY/WX    TMP DP  RH WIND       PRES   REMARKS
BRADFORD       PTCLDY    54  54 100 W3        29.97S
DUBOIS         MOCLDY    57  54  89 W9        29.98R
CLEARFIELD     MOCLDY    58  58 100 SW3       29.98S
JOHNSTOWN      CLOUDY    59  57  93 W10       30.00S
ALTOONA        MOCLDY    61  61 100 CALM      29.99R
STATE COLLEGE  MOCLDY    60  59  97 SW5       29.97R
WILLIAMSPORT   CLOUDY    62  61  96 CALM      29.93F
SELINSGROVE    CLOUDY    62  62 100 CALM      29.96F FOG
FT INDIANTOWN  RAIN      61  61 100 E2        29.96F FOG
CAPITAL CITY   LGT RAIN  63  60  90 CALM      29.96S
HARRISBURG     RAIN      63  62  97 CALM      29.95S
YORK           LGT RAIN  65  60  84 SW7G17    29.96S
$$

PAZ038>040-043-044-047-048-054-055-060>062-067>071-270500-
EASTERN PENNSYLVANIA

CITY           SKY/WX    TMP DP  RH WIND       PRES   REMARKS
SCRANTON       LGT RAIN  62  54  74 SW9       29.96F
MOUNT POCONO   CLOUDY    57  51  80 S6        29.99F
ALLENTOWN      CLOUDY    65  54  67 VRB5      29.97F
QUAKERTOWN*    CLOUDY    66  57  72 S5        29.98F
READING        CLOUDY    65  54  67 S5        29.95F
LANCASTER      CLOUDY    66  59  78 S6        29.96F
COATESVILLE    CLOUDY    64  57  77 S6        29.99S
POTTSTOWN      CLOUDY    66  57  72 S3        29.99F
BLUE BELL      CLOUDY    64  57  77 S6        29.97F
DOYLESTOWN     CLOUDY    66  58  75 S3        29.97F
WILLOW GROVE   NOT AVBL
NORTH PHILA    CLOUDY    68  59  73 S5        29.98F
PHILADELPHIA   CLOUDY    70  60  70 S9        29.97F
$$



USA.gov is the U.S. government's official web portal to all federal, state and local government web resources and services.